Weather History for Spirit of St Louis, MO

Change the Weather History Date:

Tuesday, March 25, 2014

  Actual Average Record
Temperature  
Mean Temperature 30 °F -  
Max Temperature 39 °F 57 °F 82 °F (2007)
Min Temperature 21 °F 34 °F 21 °F (2014)
Degree Days  
Heating Degree Days 35    
Moisture  
Dew Point 18 °F    
Average Humidity 59    
Maximum Humidity 88    
Minimum Humidity 28    
Precipitation  
Precipitation 0.00 in - - ()
Sea Level Pressure  
Sea Level Pressure 30.24 in    
Wind  
Wind Speed 11 mph (NW)    
Max Wind Speed 23 mph    
Max Gust Speed 33 mph    
Visibility 9 miles    
Events Snow    
Averages and records for this station are not official NWS values.
T = Trace of Precipitation, MM = Missing Value Source: NWS Daily Summary

Daily Weather History Graph

Daily Weather History Graph

Search for Another Location

Airport:

Trip Planner

Search our weather history database for the weather conditions in past years. The results will help you decide how hot, cold, wet, or windy it might be!

Date:

Astronomy

Mar. 25, 2014 Rise Set
Actual Time 6:58 AM CDT 7:19 PM CDT
Civil Twilight 6:31 AM CDT 7:46 PM CDT
Nautical Twilight 6:00 AM CDT 8:17 PM CDT
Astronomical Twilight 5:28 AM CDT 8:49 PM CDT
Moon 3:16 AM CDT (3/25) 1:53 PM CDT (3/25)
Length of Visible Light 13h 14m
Length of Day
12h 21m
Waning Crescent, 32% of the Moon is Illuminated
Mar 25
Waning Crescent
Mar 30
New
Apr 7
First Quarter
Apr 15
Full
Apr 22
Last Quarter

Hourly Weather History & Observations

Time (CDT) Temp. Windchill Dew Point Humidity Pressure Visibility Wind Dir Wind Speed Gust Speed Precip Events Conditions
12:54 AM 32.0 °F 25.6 °F 28.9 °F 88% 30.19 in 5.0 mi WSW 6.9 mph - N/A   Overcast
1:37 AM 32.0 °F 24.2 °F 28.4 °F 87% 30.15 in 4.0 mi WSW 9.2 mph - 0.00 in Snow Light Snow
1:54 AM 32.0 °F 24.2 °F 28.9 °F 88% 30.17 in 4.0 mi West 9.2 mph - 0.00 in Snow Light Snow
2:54 AM 32.0 °F 24.8 °F 28.9 °F 88% 30.17 in 7.0 mi West 8.1 mph - 0.00 in   Overcast
3:30 AM 32.0 °F 22.5 °F 28.4 °F 87% 30.14 in 10.0 mi WNW 12.7 mph - N/A   Scattered Clouds
3:54 AM 33.1 °F 24.9 °F 27.0 °F 78% 30.16 in 10.0 mi NW 10.4 mph - N/A   Mostly Cloudy
4:49 AM 30.2 °F 21.3 °F 26.6 °F 86% 30.14 in 9.0 mi NW 10.4 mph - 0.00 in   Mostly Cloudy
4:54 AM 32.0 °F 23.6 °F 26.1 °F 79% 30.17 in 10.0 mi NW 10.4 mph - 0.00 in   Mostly Cloudy
5:54 AM 30.0 °F 19.5 °F 24.1 °F 79% 30.19 in 10.0 mi WNW 13.8 mph - N/A   Clear
6:54 AM 30.0 °F 20.5 °F 24.1 °F 79% 30.22 in 10.0 mi WNW 11.5 mph - N/A   Partly Cloudy
7:54 AM 30.0 °F 20.5 °F 24.1 °F 79% 30.25 in 10.0 mi WNW 11.5 mph - N/A   Clear
8:54 AM 32.0 °F 21.2 °F 21.0 °F 64% 30.25 in 10.0 mi NW 16.1 mph - N/A   Scattered Clouds
9:54 AM 33.1 °F 22.2 °F 17.1 °F 52% 30.27 in 10.0 mi NW 17.3 mph 26.5 mph N/A   Mostly Cloudy
10:54 AM 36.0 °F 26.0 °F 10.9 °F 36% 30.28 in 10.0 mi NNW 17.3 mph 24.2 mph N/A   Mostly Cloudy
11:54 AM 37.0 °F 26.4 °F 10.0 °F 33% 30.29 in 10.0 mi WNW 20.7 mph 33.4 mph N/A   Mostly Cloudy
12:54 PM 37.0 °F 26.2 °F 10.0 °F 33% 30.29 in 10.0 mi NW 21.9 mph 29.9 mph N/A   Overcast
1:54 PM 39.0 °F 29.3 °F 10.9 °F 32% 30.29 in 10.0 mi NNW 19.6 mph 29.9 mph N/A   Mostly Cloudy
2:54 PM 37.9 °F 27.1 °F 10.0 °F 32% 30.28 in 10.0 mi WNW 23.0 mph 29.9 mph N/A   Mostly Cloudy
3:54 PM 39.0 °F 29.0 °F 9.0 °F 29% 30.28 in 10.0 mi NNW 20.7 mph 29.9 mph N/A   Scattered Clouds
4:54 PM 39.0 °F 31.8 °F 8.1 °F 28% 30.27 in 10.0 mi NNW 11.5 mph 23.0 mph N/A   Scattered Clouds
5:54 PM 37.9 °F 28.9 °F 9.0 °F 30% 30.27 in 10.0 mi NW 16.1 mph 21.9 mph N/A   Partly Cloudy
6:54 PM 35.1 °F 26.4 °F 9.0 °F 34% 30.29 in 10.0 mi NNW 12.7 mph - N/A   Partly Cloudy
7:54 PM 32.0 °F 24.8 °F 10.0 °F 40% 30.29 in 10.0 mi NNW 8.1 mph - N/A   Clear
8:54 PM 28.9 °F 23.9 °F 10.0 °F 45% 30.30 in 10.0 mi NNW 4.6 mph - N/A   Clear
9:54 PM 25.0 °F - 12.0 °F 58% 30.31 in 10.0 mi Calm Calm - N/A   Clear
10:54 PM 21.9 °F - 12.0 °F 66% 30.33 in 10.0 mi Calm Calm - N/A   Clear
11:54 PM 23.0 °F - 12.9 °F 65% 30.33 in 10.0 mi Calm Calm - N/A   Clear